CST,Max TemperatureF,Mean TemperatureF,Min TemperatureF,Max Dew PointF,MeanDew PointF,Min DewpointF,Max Humidity, Mean Humidity, Min Humidity, Max Sea Level PressureIn, Mean Sea Level PressureIn, Min Sea Level PressureIn, Max VisibilityMiles, Mean VisibilityMiles, Min VisibilityMiles, Max Wind SpeedMPH, Mean Wind SpeedMPH, Max Gust SpeedMPH,PrecipitationIn, CloudCover, Events, WindDirDegrees
2013-11-1,43,40,36,42,38,35,100,95,89,29.77,29.56,29.25,10,9,2,13,5,20,0.05,8,Rain,322
2013-11-2,39,33,27,36,33,27,100,91,82,30.18,29.99,29.74,10,8,0,9,2,12,0.11,8,Fog-Rain,333
2013-11-3,43,34,24,34,30,23,100,81,62,30.30,30.21,30.12,10,6,0,17,7,28,0.00,5,Fog,154
2013-11-4,46,43,39,43,37,34,100,83,65,30.17,30.04,29.95,10,8,2,20,12,31,0.09,7,Rain,192
2013-11-5,45,36,27,36,32,27,100,79,58,30.28,30.14,29.97,10,5,0,13,4,18,0.29,4,Fog-Rain-Snow,345
2013-11-6,33,29,25,32,29,18,100,88,75,30.13,29.93,29.83,10,6,1,15,7,21,0.30,7,Snow,332
2013-11-7,34,25,16,23,20,15,92,74,56,30.21,30.17,30.14,10,10,10,16,9,22,T,5,,277
2013-11-8,36,27,18,32,25,17,100,80,59,30.25,30.07,29.76,10,4,0,17,8,29,0.03,7,Fog-Snow,198
2013-11-9,37,35,32,36,33,28,100,88,75,30.00,29.72,29.59,10,6,1,28,14,38,0.16,8,Rain-Snow,248
2013-11-10,38,35,32,30,26,24,82,71,59,30.28,30.16,30.03,10,9,2,20,10,30,0.01,6,Snow,271
2013-11-11,33,26,19,29,14,8,85,71,57,30.60,30.32,30.02,10,8,2,20,10,30,0.20,7,Snow,329
2013-11-12,26,17,8,14,9,3,91,66,40,30.69,30.62,30.52,10,10,9,14,9,,T,3,,281
2013-11-13,45,31,16,26,22,10,74,60,45,30.27,30.01,29.90,10,10,10,23,13,38,0.00,0,,228
2013-11-14,37,33,29,29,26,24,92,78,64,29.87,29.84,29.82,10,10,10,12,7,17,T,3,,225
2013-11-15,50,37,24,36,29,23,100,81,61,29.90,29.83,29.78,10,5,0,12,5,16,0.00,1,Fog,226
2013-11-16,52,44,36,50,39,31,100,85,70,29.79,29.55,29.33,10,6,1,18,8,23,0.66,7,Rain,164
2013-11-17,51,42,32,48,37,28,96,86,76,29.53,29.36,29.21,10,9,2,28,11,39,0.05,5,Rain-Snow,260
2013-11-18,32,27,22,28,20,15,85,74,63,30.26,29.88,29.50,10,9,2,31,13,43,0.01,8,Snow,296
2013-11-19,34,24,13,22,17,11,92,70,47,30.35,30.27,30.17,10,10,10,15,6,23,0.00,2,,176
2013-11-20,35,33,30,30,27,22,100,78,56,30.16,30.09,30.04,10,4,1,17,8,25,0.20,8,Snow,153
2013-11-21,33,29,25,32,29,21,100,92,84,30.39,30.19,30.05,10,4,0,13,5,22,0.02,8,Fog-Snow,291
2013-11-22,28,21,14,22,15,3,88,67,46,30.50,30.39,30.31,10,6,1,18,9,25,0.05,7,Snow,321
2013-11-23,14,7,0,7,1,-6,83,71,58,30.72,30.57,30.39,10,7,1,17,10,29,T,7,Snow,317
2013-11-24,21,6,-9,9,-1,-9,95,72,49,30.68,30.42,30.02,10,10,10,25,10,36,0.00,2,,223
2013-11-25,32,27,21,25,19,10,81,69,57,29.98,29.90,29.80,10,10,6,25,13,36,T,7,Snow,248
2013-11-26,28,16,3,21,6,0,88,69,49,30.26,30.09,29.89,10,7,0,21,9,28,0.01,7,Snow,298
2013-11-27,22,13,3,14,9,1,91,71,51,30.31,30.21,30.09,10,7,2,13,4,21,0.02,5,Snow,315
2013-11-28,22,13,3,14,11,2,100,84,67,30.52,30.27,30.09,10,8,2,9,2,12,0.03,7,Snow,272
2013-11-29,23,13,2,16,13,0,96,82,68,30.62,30.49,30.30,10,8,2,17,5,22,0.00,7,,187
2013-11-30,34,29,23,24,21,16,81,73,64,30.27,30.11,30.01,10,10,8,13,4,17,0.00,6,,214